Regional Weather Roundup
Issued by NWS

Home | Current Version | Previous Version | Graphics & Text | Print | Product List | Glossary On
Versions: 1 2 3 4 5 6 7 8 9 10 11 12 13 14 15 16 17 18 19 20 21 22 23 24 25 26 27 28 29 30 31 32 33 34 35 36 37 38 39 40 41 42 43 44 45 46 47 48 49 50
000
ASUS45 KBOU 152210
RWRCO

WEATHER ROUNDUP FOR COLORADO
NATIONAL WEATHER SERVICE DENVER/BOULDER CO
300 PM MST MON JAN 15 2018

NOTE: "FAIR" INDICATES FEW OR NO CLOUDS BELOW 12000 FEET WITH NO
SIGNIFICANT WEATHER AND/OR OBSTRUCTIONS TO VISIBILITY.

COZ001>005-013-030-031-152300-
...NORTHWEST COLORADO...

CITY           SKY/WX    TMP DP  RH WIND       PRES   REMARKS
CRAIG          FAIR      35  14  42 N9        30.35R WCI  28
HAYDEN         FAIR      25  19  78 SW5       30.35R WCI  19
MEEKER         FAIR      35  22  58 N22       30.30F WCI  23
RABBIT EARS PA FAIR     N/A N/A N/A NW6       30.24R
STEAMBOAT SPGS CLOUDY    26  19  75 CALM      30.32R
WALDEN         FAIR      23  -8  25 N18       30.31R WCI   9
$$

COZ006>008-011-152300-
...WEST CENTRAL VALLEYS...

CITY           SKY/WX    TMP DP  RH WIND       PRES   REMARKS
GRAND JUNCTION FAIR      49  25  39 NE16G23   30.24S
MONTROSE       FAIR      43  21  41 NW8       30.24S
EAGLE          FAIR      38  19  46 NE5       30.27F
RIFLE          FAIR      44  25  47 NW16      30.25S
DELTA          FAIR      48  22  36 E9        30.22S
NUCLA          FAIR      48  21  34 NW5       30.23S
$$

COZ017>023-064>068-152300-
...SOUTHWEST COLORADO...

CITY           SKY/WX    TMP DP  RH WIND       PRES   REMARKS
DURANGO        FAIR      47  24  40 VRB6      30.13F
CORTEZ         FAIR      46  26  45 SW8       30.16R
PAGOSA SPRINGS FAIR      43  18  36 SE3       30.15S
TELLURIDE      FAIR      39  14  35 N8G16     30.22R
WOLF CREEK PAS NOT AVBL
$$

COZ009-010-012-014-032>034-037-058>063-152300-
...CENTRAL COLORADO...

CITY           SKY/WX    TMP DP  RH WIND       PRES   REMARKS
ASPEN          FAIR      39  20  46 VRB5      30.21S
BUENA VISTA    FAIR      34  16  47 SE12      30.17S WCI  25
COPPER MTN     NOT AVBL
BERTHOUD PASS  CLOUDY     9  -4  56 NW33G47   30.13S WCI -15
COTTONWOOD PAS NOT AVBL
GUNNISON       FAIR      42  19  39 W9        30.17R
KREMMLING      NOT AVBL
LEADVILLE      FAIR      25  13  60 N13G22    30.19R WCI  14
MONARCH PASS   FAIR      25  14  63 W26       30.29R WCI   9
SALIDA         FAIR      32  19  60 E15G26    30.27R WCI  21
SUNLIGHT       FAIR      21  18  86 CALM      30.29S
WILKERSON PASS FAIR      19  10  68 N10G18    30.17S WCI   8
$$

COZ069>075-152300-
...SAN LUIS VALLEY/SANGRE DE CRISTO MOUNTAINS...

CITY           SKY/WX    TMP DP  RH WIND       PRES   REMARKS
ALAMOSA        FAIR      46   8  21 S7        30.10F
DEL NORTE      FAIR      47   9  20 NE3       30.10F
LA VETA PASS   SNOW      14   9  79 N15G22      N/A  VSB 1/4 WCI  -1
SAGUACHE       FAIR      46  14  27 NW21      30.12R
$$

COZ035-036-038>040-152300-
...NORTHERN COLORADO FRONT RANGE...

CITY           SKY/WX    TMP DP  RH WIND       PRES   REMARKS
DENVER INTL AP PTSUNNY   18   4  54 NE13      30.43R WCI   5
DMNS CITY PARK NOT AVBL
AURORA         NOT AVBL
FRONT RANGE AP PTSUNNY   19   7  58 NE12      30.43R WCI   7
ERIE MUNI ARPT FAIR      21  11  66 SE6       30.51R WCI  14
BOULDER MUN AP LGT SNOW  21  14  73 E6        30.43R WCI  14
CENTENNIAL     FLURRIES  16   9  74 NE6       30.40R WCI   7
BROOMFIELD     LGT SNOW  18  14  86 SE6       30.42  WCI   9
FORT COLLINS   FAIR      21  12  68 S8        30.45R WCI  11
LONGMONT       CLOUDY    23  12  62 SE6       30.47R WCI  16
$$

COZ041-046-047-076>085-087-088-152300-
...PIKES PEAK/PALMER DIVIDE AND SOUTHERN FOOTHILLS...

CITY           SKY/WX    TMP DP  RH WIND       PRES   REMARKS
COLO. SPRINGS  FLURRIES  20   8  60 N12       30.36R WCI   8
A. F. ACADEMY  FLURRIES  16   7  68 N10       30.34R WCI   4
SCHRIEVER AFB  FLURRIES  15   8  72 N14       30.36R WCI   0
CHEYENNE MTN   FLURRIES  15   9  77 N6        30.27R WCI   6
ELLICOTT       LGT SNOW N/A N/A N/A N20G25      N/A
FALCON         CLOUDY    13   6  73 N8        30.35R WCI   2
FORT CARSON    CLOUDY    22  10  60 N3        30.37R FOG
LIMON          PTSUNNY   16  -1  47 N21G30    30.41R WCI  -1
MONUMENT HILL  FLURRIES  10   7  85 N9        30.34S WCI  -2
CANON CITY     LGT SNOW  23  21  93 SE14      30.40R WCI  11
WALSENBURG     NOT AVBL
TRINIDAD       LGT SNOW  19  16  86 NE14      30.39R FOG     WCI   6
$$

COZ042>045-048>051-090-091-152300-
...NORTHEAST COLORADO...

CITY           SKY/WX    TMP DP  RH WIND       PRES   REMARKS
GREELEY ARPT   FAIR      23   4  44 N15       30.47R WCI  10
AKRON          FAIR      16   1  51 N21G32    30.46R WCI  -1
BURLINGTON     FAIR      17   2  51 N18G26    30.48R WCI   1
WRAY           FAIR      18   0  45 MISG      30.54S
YUMA           FAIR      16   0  48 N17G24    30.50R WCI   0
STERLING       FAIR      21   1  42 N21       30.49R WCI   6
HOLYOKE        FAIR      16   1  53 N17G23    30.55R WCI   0
FORT MORGAN    FAIR      20  -7  29 N26G35    30.46S WCI   3
$$

COZ086-089-092>099-152300-
...SOUTHEAST COLORADO...

CITY           SKY/WX    TMP DP  RH WIND       PRES   REMARKS
PUEBLO         CLOUDY    24  15  68 E10       30.45R WCI  14
LA JUNTA       CLOUDY    26   5  40 NE17G23   30.48R WCI  13
LAMAR          CLOUDY    27  -1  30 N17G25    30.48R WCI  14
SPRINGFIELD      N/A     21   9  59 N20       30.44R WCI   6
$$



USA.gov is the U.S. government's official web portal to all federal, state and local government web resources and services.